Crescent City, CA

8:57 PM PDT on April 20, 2018 (GMT -0700)
McNamara

Weather History for KCEC - March, 2014

Change the Weather History Date:

Thursday, March 27, 2014

  Actual Average Record
Temperature  
Mean Temperature 51 °F 49 °F  
Max Temperature 55 °F 55 °F 73 °F (1969)
Min Temperature 47 °F 43 °F 32 °F (1972)
Degree Days  
Heating Degree Days 15 16  
Month to date heating degree days 446  
Since 1 July heating degree days 3619  
Cooling Degree Days 0 0  
Month to date cooling degree days 0  
Year to date cooling degree days 0  
Moisture  
Dew Point 46 °F    
Average Humidity 87    
Maximum Humidity 93    
Minimum Humidity 80    
Precipitation  
Precipitation 0.34 in 0.28 in 1.55 in (2005)
Month to date precipitation 5.11 6.72  
Year to date precipitation 16.75 25.99  
Since 1 July precipitation 25.74  
Snow  
Snow 0.00 in - - ()
Month to date snowfall 0.0  
Since 1 July snowfall 0.0  
Snow Depth -    
Sea Level Pressure  
Sea Level Pressure 29.96 in    
Wind  
Wind Speed 14 mph (SSE)    
Max Wind Speed 21 mph    
Max Gust Speed 26 mph    
Visibility 7 miles    
Events Rain    
T = Trace of Precipitation, MM = Missing Value Source: NWS Daily Summary

Daily Weather History Graph

Daily Weather History Graph

Search for Another Location

Airport or City:

Astronomy

Mar. 27, 2014 Rise Set
Actual Time 7:08 AM PDT 7:37 PM PDT
Civil Twilight 6:40 AM PDT 8:05 PM PDT
Nautical Twilight 6:07 AM PDT 8:37 PM PDT
Astronomical Twilight 5:33 AM PDT 9:11 PM PDT
Moon 5:06 AM PDT (3/27) 4:28 PM PDT (3/27)
Length of Visible Light 13h 24m
Length of Day
12h 28m
Waning Crescent, 12% of the Moon is Illuminated
Mar 27
Waning Crescent
Mar 30
New
Apr 7
First Quarter
Apr 15
Full
Apr 22
Last Quarter

Hourly Weather History & Observations

Time (PDT) Temp. Dew Point Humidity Pressure Visibility Wind Dir Wind Speed Gust Speed Precip Events Conditions
12:49 AM 48.9 °F 43.0 °F 80% 29.85 in 10.0 mi South 13.8 mph - N/A   Overcast
12:56 AM 48.9 °F 43.0 °F 80% 29.86 in 10.0 mi South 12.7 mph - N/A   Overcast
1:04 AM 48.9 °F 43.0 °F 80% 29.85 in 10.0 mi South 13.8 mph - N/A   Overcast
1:19 AM 48.0 °F 43.0 °F 83% 29.85 in 10.0 mi South 15.0 mph - N/A   Mostly Cloudy
1:56 AM 48.9 °F 44.1 °F 83% 29.86 in 10.0 mi South 13.8 mph - N/A   Overcast
2:56 AM 48.0 °F 45.0 °F 89% 29.88 in 6.0 mi SSE 17.3 mph - 0.02 in Rain Rain
3:37 AM 48.0 °F 46.0 °F 93% 29.87 in 10.0 mi SSE 13.8 mph - 0.00 in   Mostly Cloudy
3:45 AM 48.0 °F 45.0 °F 89% 29.87 in 10.0 mi SSE 16.1 mph - 0.00 in   Mostly Cloudy
3:56 AM 48.0 °F 45.0 °F 89% 29.88 in 10.0 mi SSE 12.7 mph - 0.00 in   Overcast
4:12 AM 48.0 °F 45.0 °F 89% 29.88 in 10.0 mi SSE 13.8 mph - N/A   Overcast
4:56 AM 48.9 °F 45.0 °F 86% 29.89 in 10.0 mi SSE 15.0 mph - N/A   Overcast
5:36 AM 48.9 °F 46.0 °F 90% 29.89 in 9.0 mi SSE 12.7 mph - 0.00 in Rain Light Rain
5:43 AM 48.9 °F 46.0 °F 90% 29.90 in 4.0 mi South 17.3 mph - 0.03 in Rain Rain
5:56 AM 48.0 °F 45.0 °F 89% 29.90 in 6.0 mi South 15.0 mph - 0.05 in Rain Light Rain
6:56 AM 48.0 °F 45.0 °F 89% 29.92 in 8.0 mi SSE 13.8 mph - 0.00 in Rain Light Rain
7:09 AM 48.0 °F 45.0 °F 89% 29.92 in 10.0 mi SSE 10.4 mph - 0.00 in   Overcast
7:56 AM 46.9 °F 44.1 °F 90% 29.94 in 1.8 mi SSW 10.4 mph - 0.07 in Rain Heavy Rain
8:04 AM 48.0 °F 45.0 °F 89% 29.94 in 2.0 mi SSW 9.2 mph - 0.02 in Rain Light Rain
8:12 AM 48.0 °F 45.0 °F 89% 29.94 in 5.0 mi South 12.7 mph - 0.03 in Rain Light Rain
8:56 AM 48.9 °F 45.0 °F 86% 29.95 in 10.0 mi South 12.7 mph - 0.04 in   Overcast
9:35 AM 50.0 °F 46.9 °F 89% 29.96 in 8.0 mi SSE 11.5 mph - 0.01 in Rain Light Rain
9:56 AM 50.0 °F 46.9 °F 89% 29.97 in 7.0 mi SSE 11.5 mph - 0.01 in Rain Light Rain
10:15 AM 48.9 °F 46.0 °F 90% 29.98 in 2.0 mi SSE 9.2 mph - 0.06 in Rain Rain
10:17 AM 48.9 °F 46.0 °F 90% 29.98 in 1.8 mi SSE 8.1 mph - 0.06 in Rain Rain
10:20 AM 48.9 °F 46.0 °F 90% 29.98 in 2.0 mi South 9.2 mph - 0.08 in Rain Heavy Rain
10:31 AM 48.9 °F 46.9 °F 93% 29.98 in 6.0 mi SSE 19.6 mph 25.3 mph 0.08 in Rain Light Rain
10:48 AM 48.0 °F 46.0 °F 93% 29.99 in 6.0 mi South 13.8 mph - 0.09 in Rain Light Rain
10:56 AM 48.9 °F 46.0 °F 90% 30.00 in 4.0 mi South 11.5 mph - 0.10 in Rain Light Rain
11:53 AM 51.8 °F 46.4 °F 82% 30.01 in 10.0 mi South 15.0 mph 24.2 mph 0.00 in   Overcast
11:56 AM 52.0 °F 46.9 °F 83% 30.01 in 9.0 mi South 13.8 mph - 0.00 in   Overcast
12:34 PM 52.0 °F 48.0 °F 86% 30.01 in 9.0 mi South 16.1 mph - 0.03 in   Overcast
12:56 PM 54.0 °F 48.9 °F 83% 30.02 in 9.0 mi South 18.4 mph - 0.03 in   Overcast
1:56 PM 53.1 °F 48.0 °F 83% 30.02 in 10.0 mi SSE 13.8 mph - N/A   Mostly Cloudy
2:56 PM 53.1 °F 48.0 °F 83% 30.01 in 9.0 mi SSE 11.5 mph - N/A   Overcast
3:56 PM 53.1 °F 48.9 °F 86% 30.02 in 8.0 mi SSE 13.8 mph - 0.00 in Rain Light Rain
4:26 PM 52.0 °F 48.9 °F 89% 30.02 in 6.0 mi SSE 12.7 mph - 0.00 in Rain Light Rain
4:56 PM 52.0 °F 50.0 °F 93% 30.02 in 5.0 mi SSE 13.8 mph - 0.01 in Rain Light Rain
5:25 PM 52.0 °F 50.0 °F 93% 30.01 in 6.0 mi SSE 11.5 mph - 0.01 in Rain Light Rain
5:53 PM 51.8 °F 50.0 °F 94% 30.01 in 5.0 mi SSE 12.7 mph - 0.02 in Rain Light Rain
5:56 PM 51.1 °F 50.0 °F 96% 30.01 in 5.0 mi SSE 13.8 mph - 0.02 in Rain Light Rain
6:56 PM 51.1 °F 48.9 °F 92% 30.01 in 6.0 mi SSE 17.3 mph - 0.05 in Rain Light Rain
7:56 PM 50.0 °F 48.0 °F 93% 30.00 in 9.0 mi SE 11.5 mph - 0.02 in Rain Light Rain
8:32 PM 51.1 °F 48.0 °F 89% 30.00 in 10.0 mi SSE 16.1 mph - 0.00 in   Overcast
8:56 PM 52.0 °F 46.9 °F 83% 30.01 in 10.0 mi SSE 15.0 mph - 0.00 in   Overcast
9:56 PM 52.0 °F 46.9 °F 83% 30.01 in 10.0 mi SSE 10.4 mph - 0.00 in Rain Light Rain
10:44 PM 51.1 °F 48.0 °F 89% 30.02 in 9.0 mi SSE 12.7 mph - 0.01 in Rain Light Rain
10:56 PM 51.1 °F 48.0 °F 89% 30.02 in 8.0 mi SSE 11.5 mph - 0.01 in Rain Light Rain
11:56 PM 50.0 °F 48.0 °F 93% 30.01 in 6.0 mi SE 11.5 mph - 0.05 in Rain Light Rain